When you browse on this site, cookies collect data to enhance your experience and personalize the content and advertising you see.
Visit our Privacy Policy to learn more. By continuing to use the site, you agree to this use of cookies and data.
  • In Netherlands
  • List of Countries
  • For 7 days
  • Water Temperature
  • Satellite Maps
  • Weather Map
  • Weather Widgets
  • user-avatar
    Login

    Hourly Weather Lipno

    Today, 23 April, Tuesday

    Time Temperature Precipitation Wind Pressure Humidity
    00:00 +9°C° 0 mm 5 mps 758 mmHg 56%
    01:00 +8°C° 0 mm 5 mps 758 mmHg 55%
    02:00 +8°C° 0 mm 5 mps 758 mmHg 54%
    03:00 +8°C° 0 mm 6 mps 758 mmHg 53%
    04:00 +8°C° 0 mm 6 mps 758 mmHg 53%
    05:00 +8°C° 0 mm 7 mps 758 mmHg 51%
    06:00 +9°C° 0 mm 8 mps 757 mmHg 50%
    07:00 +10°C° 0 mm 9 mps 757 mmHg 48%
    08:00 +12°C° 0 mm 10 mps 757 mmHg 45%
    09:00 +13°C° 0 mm 11 mps 757 mmHg 42%
    10:00 +14°C° 0 mm 12 mps 757 mmHg 39%
    11:00 +15°C° 0 mm 12 mps 756 mmHg 39%
    12:00 +16°C° 0 mm 11 mps 756 mmHg 39%
    13:00 +17°C° 0 mm 11 mps 756 mmHg 39%
    14:00 +17°C° 0 mm 11 mps 755 mmHg 40%
    15:00 +17°C° 0 mm 11 mps 755 mmHg 41%
    16:00 +17°C° 0 mm 10 mps 754 mmHg 43%
    17:00 +16°C° 0 mm 9 mps 754 mmHg 45%
    18:00 +15°C° 0 mm 8 mps 754 mmHg 48%
    19:00 +12°C° 0 mm 7 mps 754 mmHg 50%
    20:00 +12°C° 0 mm 7 mps 754 mmHg 50%
    21:00 +12°C° 0 mm 7 mps 754 mmHg 50%
    22:00 +11°C° 0 mm 8 mps 754 mmHg 49%
    23:00 +11°C° 0 mm 8 mps 754 mmHg 51%

    Tomorrow, 24 April, Wednesday

    Time Temperature Precipitation Wind Pressure Humidity
    00:00 +11°C° 0 mm 8 mps 754 mmHg 52%
    01:00 +10°C° 0 mm 8 mps 754 mmHg 54%
    02:00 +10°C° 0 mm 8 mps 754 mmHg 54%
    03:00 +10°C° 0 mm 8 mps 753 mmHg 55%
    04:00 +9°C° 0 mm 8 mps 753 mmHg 55%
    05:00 +10°C° 0 mm 8 mps 753 mmHg 56%
    06:00 +10°C° 0 mm 9 mps 753 mmHg 56%
    07:00 +11°C° 0 mm 9 mps 753 mmHg 57%
    08:00 +12°C° 0 mm 9 mps 753 mmHg 56%
    09:00 +13°C° 0 mm 9 mps 753 mmHg 55%
    10:00 +14°C° 0 mm 10 mps 753 mmHg 54%
    11:00 +16°C° 0 mm 9 mps 753 mmHg 53%
    12:00 +17°C° 0 mm 9 mps 753 mmHg 51%
    13:00 +19°C° 0 mm 9 mps 753 mmHg 50%
    14:00 +20°C° 0 mm 8 mps 753 mmHg 53%
    15:00 +18°C° 0 mm 7 mps 753 mmHg 56%
    16:00 +19°C° 0 mm 6 mps 753 mmHg 59%
    17:00 +17°C° 0 mm 6 mps 752 mmHg 61%
    18:00 +17°C° 0 mm 6 mps 752 mmHg 64%
    19:00 +16°C° 0 mm 6 mps 752 mmHg 66%
    20:00 +15°C° 0 mm 6 mps 752 mmHg 68%
    21:00 +14°C° 0 mm 6 mps 753 mmHg 71%
    22:00 +14°C° 0 mm 6 mps 753 mmHg 73%
    23:00 +13°C° 0 mm 6 mps 753 mmHg 76%

    Day after tomorrow, 25 April, Thursday

    Time Temperature Precipitation Wind Pressure Humidity
    00:00 +13°C° 0 mm 5 mps 753 mmHg 80%
    01:00 +12°C° 0 mm 5 mps 752 mmHg 83%
    02:00 +12°C° 0 mm 5 mps 752 mmHg 82%
    03:00 +13°C° 0 mm 5 mps 752 mmHg 81%
    04:00 +13°C° 0 mm 5 mps 752 mmHg 81%
    05:00 +14°C° 0 mm 5 mps 752 mmHg 79%
    06:00 +14°C° 0 mm 5 mps 752 mmHg 78%
    07:00 +15°C° 0 mm 4 mps 752 mmHg 77%
    08:00 +18°C° 0 mm 4 mps 753 mmHg 71%
    09:00 +19°C° 0 mm 4 mps 753 mmHg 66%
    10:00 +21°C° 0 mm 4 mps 753 mmHg 60%
    11:00 +22°C° 0 mm 4 mps 753 mmHg 57%
    12:00 +23°C° 0 mm 4 mps 753 mmHg 54%
    13:00 +25°C° 0 mm 4 mps 752 mmHg 50%
    14:00 +25°C° 0 mm 4 mps 752 mmHg 52%
    15:00 +24°C° 0 mm 3 mps 752 mmHg 54%
    16:00 +24°C° 0 mm 2 mps 752 mmHg 56%
    17:00 +21°C° 0 mm 2 mps 752 mmHg 61%
    18:00 +20°C° 0 mm 2 mps 752 mmHg 65%
    19:00 +20°C° 0 mm 1 mps 752 mmHg 69%
    20:00 +19°C° 0 mm 1 mps 752 mmHg 72%
    21:00 +17°C° 0 mm 2 mps 752 mmHg 75%
    22:00 +16°C° 0 mm 2 mps 753 mmHg 77%
    23:00 +16°C° 0 mm 2 mps 752 mmHg 79%

    26 April, Friday

    Time Temperature Precipitation Wind Pressure Humidity
    00:00 +15°C° 0 mm 2 mps 752 mmHg 81%
    01:00 +15°C° 0 mm 2 mps 752 mmHg 83%
    02:00 +14°C° 0 mm 2 mps 752 mmHg 84%
    03:00 +13°C° 0 mm 3 mps 752 mmHg 85%
    04:00 +13°C° 0 mm 3 mps 752 mmHg 87%
    05:00 +14°C° 0 mm 3 mps 751 mmHg 82%
    06:00 +16°C° 0 mm 3 mps 751 mmHg 78%
    07:00 +18°C° 0 mm 3 mps 751 mmHg 73%
    08:00 +20°C° 0 mm 4 mps 751 mmHg 67%
    09:00 +21°C° 0 mm 4 mps 750 mmHg 61%
    10:00 +23°C° 0 mm 4 mps 750 mmHg 55%
    11:00 +25°C° 0 mm 4 mps 749 mmHg 52%
    12:00 +26°C° 0 mm 4 mps 749 mmHg 48%
    13:00 +27°C° 0 mm 4 mps 749 mmHg 45%
    14:00 +27°C° 0 mm 3 mps 748 mmHg 49%
    15:00 +26°C° 0 mm 2 mps 748 mmHg 52%
    16:00 +25°C° 0 mm 1 mps 748 mmHg 55%
    17:00 +24°C° 0 mm 1 mps 747 mmHg 58%
    18:00 +23°C° 0 mm 1 mps 747 mmHg 61%
    19:00 +21°C° 0 mm 1 mps 747 mmHg 64%
    20:00 +21°C° 0 mm 1 mps 747 mmHg 65%
    21:00 +20°C° 0 mm 1 mps 747 mmHg 67%
    22:00 +19°C° 0 mm 1 mps 747 mmHg 68%
    23:00 +19°C° 0 mm 1 mps 747 mmHg 71%

    27 April, Saturday

    Time Temperature Precipitation Wind Pressure Humidity
    00:00 +19°C° 0 mm 1 mps 747 mmHg 73%
    01:00 +18°C° 0 mm 1 mps 747 mmHg 76%
    02:00 +17°C° 0.1 mm 2 mps 747 mmHg 80%
    03:00 +16°C° 0.1 mm 2 mps 747 mmHg 83%
    04:00 +15°C° 0.1 mm 2 mps 746 mmHg 87%
    05:00 +16°C° 0.6 mm 2 mps 747 mmHg 87%
    06:00 +16°C° 0.6 mm 3 mps 747 mmHg 88%
    07:00 +15°C° 0.6 mm 4 mps 747 mmHg 89%
    08:00 +15°C° 0.3 mm 4 mps 747 mmHg 87%
    09:00 +16°C° 0.3 mm 5 mps 747 mmHg 86%
    10:00 +16°C° 0.3 mm 5 mps 747 mmHg 84%
    11:00 +15°C° 0.1 mm 5 mps 748 mmHg 83%
    12:00 +15°C° 0.1 mm 5 mps 748 mmHg 82%
    13:00 +15°C° 0.1 mm 6 mps 748 mmHg 81%
    14:00 +14°C° 0.1 mm 6 mps 749 mmHg 82%
    15:00 +11°C° 0.1 mm 6 mps 749 mmHg 82%
    16:00 +10°C° 0.1 mm 6 mps 749 mmHg 83%
    17:00 +10°C° 0 mm 6 mps 749 mmHg 81%
    18:00 +9°C° 0 mm 5 mps 750 mmHg 78%
    19:00 +9°C° 0 mm 5 mps 750 mmHg 76%
    20:00 +9°C° 0 mm 5 mps 750 mmHg 76%
    21:00 +9°C° 0 mm 5 mps 751 mmHg 76%
    22:00 +9°C° 0 mm 5 mps 751 mmHg 77%
    23:00 +9°C° 0 mm 5 mps 751 mmHg 79%

    28 April, Sunday

    Time Temperature Precipitation Wind Pressure Humidity
    00:00 +10°C° 0 mm 4 mps 751 mmHg 82%
    01:00 +10°C° 0 mm 4 mps 751 mmHg 85%
    02:00 +8°C° 0 mm 4 mps 751 mmHg 87%
    03:00 +9°C° 0 mm 3 mps 751 mmHg 88%
    04:00 +9°C° 0 mm 3 mps 752 mmHg 89%
    05:00 +10°C° 0 mm 3 mps 752 mmHg 86%
    06:00 +10°C° 0 mm 4 mps 752 mmHg 84%
    07:00 +11°C° 0 mm 4 mps 752 mmHg 81%
    08:00 +12°C° 0 mm 4 mps 753 mmHg 73%
    09:00 +14°C° 0 mm 4 mps 753 mmHg 65%
    10:00 +15°C° 0 mm 4 mps 753 mmHg 58%
    11:00 +17°C° 0 mm 4 mps 753 mmHg 54%
    12:00 +18°C° 0 mm 4 mps 753 mmHg 50%
    13:00 +19°C° 0 mm 4 mps 753 mmHg 46%
    14:00 +18°C° 0 mm 4 mps 753 mmHg 47%
    15:00 +18°C° 0 mm 4 mps 753 mmHg 48%
    16:00 +18°C° 0 mm 3 mps 753 mmHg 50%
    17:00 +17°C° 0.1 mm 3 mps 753 mmHg 56%
    18:00 +15°C° 0.1 mm 2 mps 754 mmHg 63%
    19:00 +14°C° 0.1 mm 2 mps 754 mmHg 70%
    20:00 +13°C° 0 mm 2 mps 754 mmHg 74%
    21:00 +12°C° 0 mm 2 mps 754 mmHg 77%
    22:00 +10°C° 0 mm 2 mps 755 mmHg 81%
    23:00 +9°C° 0 mm 2 mps 755 mmHg 83%
    Show more